Regional Weather Roundup
Issued by NWS Northern Indiana

Home | Current Version | Previous Version | Text Only | Print | Product List | Glossary Off
Versions: 1 2 3 4 5 6 7 8 9 10 11 12 13 14 15 16 17 18 19 20 21 22 23 24 25 26 27 28 29 30 31 32 33 34 35 36 37 38 39 40 41 42 43 44 45 46 47 48 49 50

000
ASUS43 KIWX 241910
RWRIWX

KIWX WEATHER ROUNDUP
NATIONAL WEATHER SERVICE NORTHERN INDIANA
300 PM EDT FRI OCT 24 2014

NOTE: "FAIR" INDICATES FEW OR NO CLOUDS BELOW 12,000 FEET WITH NO
SIGNIFICANT WEATHER AND/OR OBSTRUCTIONS TO VISIBILITY.

* THESE STATIONS ARE NOT UNDER NWS QUALITY CONTROL. THEY ALSO MAY NOT
  REPORT WEATHER SUCH AS PRECIPITATION OR FOG.

INZ001>027-242000-
NORTHERN INDIANA

CITY           SKY/WX    TMP DP  RH WIND       PRES   REMARKS
GARY*          PTSUNNY   66  50  55 SW8       30.01F
VALPARAISO     MOSUNNY   63  49  60 SW9       30.00F
MICHIGAN CITY* MOSUNNY   61  46  59 NW7       30.00F
LAPORTE*       MOSUNNY   65  51  59 SW12G17   30.01F
KNOX*          MOSUNNY   65  49  57 SW7       30.00F
SOUTH BEND     PTSUNNY   64  50  60 VRB7      30.01F
ELKHART*       CLOUDY    64  50  59 SW7       30.01F
GOSHEN         MOSUNNY   63  50  62 SW10      30.00F
MONTICELLO*    PTSUNNY   64  53  67 W6        30.01F
LOGANSPORT*    MOSUNNY   64  50  59 SW8       30.02F
ROCHESTER*     CLOUDY    66  54  63 SW7       30.01F
WARSAW*        MOSUNNY   63  50  63 SW3       30.01F
ANGOLA*        SUNNY     61  48  63 S8        30.00F
FORT WAYNE     PTSUNNY   61  49  64 VRB5      30.03F
HUNTINGTON*    MOSUNNY   62  51  68 W3        30.02F
PERU/GRISSOM   SUNNY     65  56  74 SW8       30.02F
MARION*        SUNNY     63  47  57 W7        30.04F

$$
INZ028>050-242000-
CENTRAL INDIANA

CITY           SKY/WX    TMP DP  RH WIND       PRES   REMARKS
LAFAYETTE      MOSUNNY   63  53  70 W8        30.02F
KOKOMO*        MOSUNNY   64  52  63 SW6       30.03F
MUNCIE*        CLOUDY    62  44  51 W8        30.04F
INDIANAPOLIS   MOSUNNY   63  49  60 W6        30.04F

$$
MIZ043>046-050>051-056>058-064>065-071>073-077>080-242000-
SOUTHWEST LOWER MICHIGAN

CITY           SKY/WX    TMP DP  RH WIND       PRES   REMARKS
BATTLE CREEK   PTSUNNY   61  46  57 W9        30.00F
BENTON HARBOR  MOSUNNY   57  49  74 W9        30.01F
COLDWATER*     MOSUNNY   60  49  66 S5        29.99F
HILLSDALE*     CLOUDY    58  46  66 S5        30.00F
HOLLAND        CLOUDY    59  50  72 W8        30.01F
GRAND RAPIDS   CLOUDY    60  50  69 W10       29.99F
KALAMAZOO      PTSUNNY   62  47  57 SW12      30.00F
STURGIS*       MOSUNNY   61  52  72 CALM      30.00F
THREE RIVERS*  CLOUDY    63  50  63 SW6       30.00F

$$
OHZ001>008-015>018-024>025-242000-
NORTHWEST OHIO

CITY           SKY/WX    TMP DP  RH WIND       PRES   REMARKS
WAUSEON*       CLOUDY    57  46  67 W6        30.03F
DEFIANCE       CLOUDY    57  47  69 SW7       30.04F
FINDLAY        CLOUDY    62  41  46 SW6       30.02F
TOLEDO EXPRESS CLOUDY    59  42  53 SW6       30.02F
TOLEDO METCALF CLOUDY    61  42  49 SW10      30.03F
LIMA           MOSUNNY   64  42  44 SW10      30.04F

$$
AND FOR LAKE MICHIGAN COASTAL AND OPEN LAKE BUOY OBSERVATIONS

STATION/POSITION TEMP    WIND        PRES    VSBY  WAVE
                 AIR SEA DIR/SP/G                  HT/PER
                 (F)     (DEG/KT/KT) (MB)    (MI)  (FT/S)
CALUMET HARBOR    64     250/  3/ 10 1014.6F
MICHIGAN CITY     58     330/  4/  5   N/A
SAINT JOSEPH      59                 1016.9F
SOUTH LAKE BUOY   52 54  230/  8/ 10 1016.3F         1
SAINT JOSEPH CG                      1016.5      6   1

$$
&&



USA.gov is the U.S. government's official web portal to all federal, state and local government web resources and services.